Terug naar catalogus

STARLINK-5513

ActiefCommunicatieVLEO
NORAD 57251·PAYLOAD·🇺🇸 United States

Gelanceerd Jul 7, 2023 vanaf Vandenberg Space Force Base

Loading…

Volgende Passages (komende 24 uur)

TLE

VersSource: CelesTrak SupGP

Epoch: Sep 15, 2026, 01:48 UTC

1 57251C 23094AK  26258.07548611 -.00051400  00000+0 -18617-2 0  2587
2 57251  43.0018  30.1370 0001634 263.0052 197.3717 15.27604176    19

Volg STARLINK-5513 in realtime met AllMySat

Download on the App Store